Stündliche Wetter Bolshie Klochki

Heute, 28 Januar, Donnerstag

Zeit Temperatur Niederschläge Wind Luftdruck Luftfeuchtigkeit
00:00 -4°C° 0 mm 2 m/S 731 mmHg 95%
01:00 -4°C° 0 mm 2 m/S 731 mmHg 96%
02:00 -2°C° 0 mm 1 m/S 731 mmHg 99%
03:00 -3°C° 0 mm 1 m/S 731 mmHg 99%
04:00 -3°C° 0 mm 1 m/S 731 mmHg 98%
05:00 -3°C° 0 mm 1 m/S 731 mmHg 97%
06:00 -3°C° 0 mm 1 m/S 731 mmHg 97%
07:00 -3°C° 0 mm 1 m/S 731 mmHg 97%
08:00 -4°C° 0 mm 1 m/S 731 mmHg 97%
09:00 -3°C° 0 mm 1 m/S 731 mmHg 95%
10:00 -2°C° 0 mm 1 m/S 731 mmHg 94%
11:00 -2°C° 0 mm 1 m/S 731 mmHg 92%
12:00 -2°C° 0 mm 1 m/S 730 mmHg 92%
13:00 -1°C° 0 mm 1 m/S 730 mmHg 92%
14:00 -1°C° 0 mm 1 m/S 730 mmHg 91%
15:00 -1°C° 0.2 mm 1 m/S 729 mmHg 93%
16:00 -2°C° 0.2 mm 1 m/S 729 mmHg 95%
17:00 -2°C° 0.2 mm 1 m/S 729 mmHg 97%
18:00 -4°C° 0.3 mm 2 m/S 728 mmHg 97%
19:00 -4°C° 0.3 mm 2 m/S 728 mmHg 96%
20:00 -4°C° 0.3 mm 2 m/S 727 mmHg 96%
21:00 -4°C° 0.2 mm 2 m/S 727 mmHg 96%
22:00 -4°C° 0.2 mm 2 m/S 726 mmHg 96%
23:00 -5°C° 0.2 mm 2 m/S 726 mmHg 96%

Morgen, 29 Januar, Freitag

Zeit Temperatur Niederschläge Wind Luftdruck Luftfeuchtigkeit
00:00 -4°C° 0.3 mm 2 m/S 725 mmHg 97%
01:00 -3°C° 0.3 mm 2 m/S 725 mmHg 97%
02:00 -2°C° 0.3 mm 2 m/S 724 mmHg 97%
03:00 -1°C° 0.4 mm 2 m/S 723 mmHg 98%
04:00 0°C° 0.4 mm 3 m/S 723 mmHg 98%
05:00 +1°C° 0.4 mm 3 m/S 722 mmHg 98%
06:00 -1°C° 0.4 mm 4 m/S 722 mmHg 98%
07:00 -1°C° 0.4 mm 4 m/S 721 mmHg 97%
08:00 -1°C° 0.4 mm 5 m/S 720 mmHg 96%
09:00 -1°C° 0 mm 5 m/S 720 mmHg 91%
10:00 -2°C° 0 mm 5 m/S 720 mmHg 86%
11:00 -4°C° 0 mm 5 m/S 719 mmHg 80%
12:00 -4°C° 0 mm 5 m/S 719 mmHg 83%
13:00 -4°C° 0 mm 5 m/S 719 mmHg 85%
14:00 -5°C° 0 mm 5 m/S 718 mmHg 87%
15:00 -4°C° 0.1 mm 4 m/S 718 mmHg 90%
16:00 -5°C° 0.1 mm 4 m/S 718 mmHg 92%
17:00 -5°C° 0.1 mm 4 m/S 718 mmHg 94%
18:00 -5°C° 0.2 mm 4 m/S 718 mmHg 94%
19:00 -5°C° 0.2 mm 4 m/S 718 mmHg 94%
20:00 -5°C° 0.2 mm 4 m/S 718 mmHg 93%
21:00 -7°C° 0.1 mm 4 m/S 718 mmHg 93%
22:00 -7°C° 0.1 mm 4 m/S 718 mmHg 93%
23:00 -8°C° 0.1 mm 4 m/S 718 mmHg 92%

übermorgen, 30 Januar, Samstag

Zeit Temperatur Niederschläge Wind Luftdruck Luftfeuchtigkeit
00:00 -9°C° 0.1 mm 4 m/S 718 mmHg 92%
01:00 -9°C° 0.1 mm 4 m/S 718 mmHg 92%
02:00 -9°C° 0.1 mm 4 m/S 718 mmHg 92%
03:00 -9°C° 0.1 mm 4 m/S 718 mmHg 93%
04:00 -8°C° 0.1 mm 3 m/S 718 mmHg 93%
05:00 -8°C° 0.1 mm 3 m/S 718 mmHg 94%
06:00 -8°C° 0.1 mm 3 m/S 718 mmHg 94%
07:00 -7°C° 0.1 mm 3 m/S 718 mmHg 94%
08:00 -7°C° 0.1 mm 3 m/S 719 mmHg 95%
09:00 -7°C° 0.1 mm 3 m/S 719 mmHg 93%
10:00 -7°C° 0.1 mm 3 m/S 719 mmHg 91%
11:00 -7°C° 0.1 mm 4 m/S 720 mmHg 89%
12:00 -7°C° 0.1 mm 4 m/S 720 mmHg 89%
13:00 -7°C° 0.1 mm 4 m/S 720 mmHg 89%
14:00 -8°C° 0.1 mm 4 m/S 720 mmHg 89%
15:00 -8°C° 0 mm 4 m/S 720 mmHg 90%
16:00 -9°C° 0 mm 4 m/S 720 mmHg 91%
17:00 -9°C° 0 mm 4 m/S 720 mmHg 92%
18:00 -9°C° 0 mm 4 m/S 721 mmHg 92%
19:00 -9°C° 0 mm 3 m/S 721 mmHg 91%
20:00 -9°C° 0 mm 3 m/S 721 mmHg 91%
21:00 -9°C° 0 mm 3 m/S 721 mmHg 92%
22:00 -9°C° 0 mm 3 m/S 721 mmHg 93%
23:00 -9°C° 0 mm 2 m/S 721 mmHg 94%

31 Januar, Sonntag

Zeit Temperatur Niederschläge Wind Luftdruck Luftfeuchtigkeit
00:00 -9°C° 0 mm 2 m/S 721 mmHg 95%
01:00 -9°C° 0 mm 2 m/S 721 mmHg 95%
02:00 -9°C° 0 mm 2 m/S 721 mmHg 96%
03:00 -10°C° 0 mm 2 m/S 721 mmHg 96%
04:00 -10°C° 0 mm 2 m/S 720 mmHg 97%
05:00 -10°C° 0 mm 1 m/S 720 mmHg 97%
06:00 -10°C° 0 mm 1 m/S 720 mmHg 97%
07:00 -10°C° 0 mm 1 m/S 720 mmHg 96%
08:00 -10°C° 0 mm 1 m/S 720 mmHg 96%
09:00 -9°C° 0 mm 1 m/S 720 mmHg 95%
10:00 -8°C° 0 mm 1 m/S 720 mmHg 93%
11:00 -7°C° 0 mm 1 m/S 721 mmHg 92%
12:00 -7°C° 0 mm 2 m/S 721 mmHg 91%
13:00 -7°C° 0 mm 2 m/S 721 mmHg 90%
14:00 -7°C° 0 mm 3 m/S 721 mmHg 89%
15:00 -7°C° 0 mm 2 m/S 722 mmHg 91%
16:00 -7°C° 0 mm 2 m/S 722 mmHg 93%
17:00 -8°C° 0 mm 2 m/S 723 mmHg 95%
18:00 -8°C° 0 mm 2 m/S 723 mmHg 94%
19:00 -8°C° 0 mm 3 m/S 723 mmHg 94%
20:00 -8°C° 0 mm 3 m/S 724 mmHg 94%
21:00 -9°C° 0 mm 4 m/S 724 mmHg 92%
22:00 -9°C° 0 mm 4 m/S 725 mmHg 91%
23:00 -9°C° 0 mm 4 m/S 725 mmHg 90%

1 Februar, Montag

Zeit Temperatur Niederschläge Wind Luftdruck Luftfeuchtigkeit
00:00 -9°C° 0 mm 4 m/S 726 mmHg 90%
01:00 -9°C° 0 mm 4 m/S 727 mmHg 90%
02:00 -9°C° 0 mm 4 m/S 727 mmHg 90%
03:00 -10°C° 0 mm 4 m/S 727 mmHg 91%
04:00 -10°C° 0 mm 4 m/S 728 mmHg 92%
05:00 -10°C° 0 mm 4 m/S 728 mmHg 93%
06:00 -10°C° 0 mm 4 m/S 729 mmHg 92%
07:00 -10°C° 0 mm 4 m/S 729 mmHg 92%
08:00 -9°C° 0 mm 4 m/S 730 mmHg 92%
09:00 -9°C° 0 mm 4 m/S 730 mmHg 91%
10:00 -9°C° 0 mm 4 m/S 730 mmHg 91%
11:00 -9°C° 0 mm 4 m/S 731 mmHg 90%
12:00 -8°C° 0 mm 3 m/S 731 mmHg 90%
13:00 -8°C° 0 mm 3 m/S 731 mmHg 89%
14:00 -8°C° 0 mm 3 m/S 731 mmHg 88%
15:00 -8°C° 0 mm 2 m/S 731 mmHg 91%
16:00 -9°C° 0 mm 2 m/S 730 mmHg 93%
17:00 -12°C° 0 mm 2 m/S 730 mmHg 95%
18:00 -10°C° 0 mm 1 m/S 730 mmHg 95%
19:00 -11°C° 0 mm 1 m/S 730 mmHg 95%
20:00 -12°C° 0 mm 1 m/S 730 mmHg 95%
21:00 -12°C° 0 mm 1 m/S 730 mmHg 95%
22:00 -12°C° 0 mm 0 m/S 730 mmHg 94%
23:00 -12°C° 0 mm 0 m/S 730 mmHg 93%

2 Februar, Dienstag

Zeit Temperatur Niederschläge Wind Luftdruck Luftfeuchtigkeit
00:00 -12°C° 0 mm 0 m/S 730 mmHg 94%
01:00 -12°C° 0 mm 1 m/S 730 mmHg 94%
02:00 -12°C° 0 mm 1 m/S 730 mmHg 94%
03:00 -12°C° 0 mm 1 m/S 730 mmHg 95%
04:00 -12°C° 0 mm 1 m/S 730 mmHg 95%
05:00 -12°C° 0 mm 1 m/S 730 mmHg 96%
06:00 -12°C° 0 mm 1 m/S 730 mmHg 96%
07:00 -14°C° 0 mm 2 m/S 731 mmHg 97%
08:00 -14°C° 0 mm 2 m/S 731 mmHg 97%
09:00 -13°C° 0 mm 2 m/S 731 mmHg 95%
10:00 -12°C° 0 mm 2 m/S 732 mmHg 93%
11:00 -9°C° 0 mm 2 m/S 732 mmHg 91%
12:00 -9°C° 0 mm 2 m/S 732 mmHg 90%
13:00 -8°C° 0 mm 2 m/S 733 mmHg 89%
14:00 -7°C° 0 mm 2 m/S 733 mmHg 88%
15:00 -8°C° 0 mm 2 m/S 733 mmHg 91%
16:00 -9°C° 0 mm 2 m/S 733 mmHg 93%
17:00 -10°C° 0 mm 2 m/S 734 mmHg 96%
18:00 -10°C° 0 mm 2 m/S 734 mmHg 95%
19:00 -13°C° 0 mm 3 m/S 734 mmHg 95%
20:00 -13°C° 0 mm 3 m/S 734 mmHg 95%
21:00 -13°C° 0 mm 3 m/S 734 mmHg 95%
22:00 -13°C° 0 mm 3 m/S 734 mmHg 95%
23:00 -14°C° 0 mm 3 m/S 734 mmHg 95%
Mehr zeigen

Wir brauchen deine Erlaubnis

Meteoprog und unser Service Anbieter werden persönliche Daten aufbewahren, so wie Cookies, Geräte Bezeichnung oder ähnliche Technologien von deinem Gerät und Prozess, so wie Persönliche Daten Inhalte und Werbungen, genauso wie social Media und den Verkehr zu analysieren.

  • Aufbewahrung und/oder Zugang zu deiner Geräte Informationen.

    Cookies, Geräte Bezeichnung oder andere Informationen, können aufbewahrt oder Zugang zu deinem Gerät erhalten, für den Grund, der oben angegeben wird.

  • Personalisierte Werbung und Inhalte, Messungen, Einblick in das Publikum und Produkt Entwicklung.

    Werbungen und Inhalte können personalisiert werden, basierend auf ein Profil. Mehr Daten können besser personalisierte Werbungen und Inhalte hinzufügen. Werbung und Inhalte können gezeigt und gemessen werden. Einblicke über das Publikum, welche die Werbung gesehen haben und den Inhalt, können abgeleitet werden. So wie Daten können genutzt werden, um es zu verbessern oder die Benutzer Erfahrung zu verbessern das System und die Software.

Wenn du “Ich stimme zu” klickst, erlaubst du uns, die Cookies zu benutzen die Geräte Bezeichnung, den Web oder ähnliche Technologien zu benutzen. Deine Settings, können in deinem Gerät bei deinem Browser geändert werden.

Für den bestimmten Zweck, berechtigten Interessen beruhen darauf, mehr als auf den Inhalt. Du kannst mehr darüber in unseren Privaten und Cookie Politik lesen.